﻿_id,日時,平均風速(m/s),平均風向,最大瞬間風速(m/s),最大風速時風向,気温(℃),湿度(%),10分間移動積算雨量(mm),1時間移動積算雨量(mm),日雨量(mm),累計雨量(mm)
1,2020-04-13T00:00:00,3.3,北東,5.6,東北東,7.7,94.7,1.5,5,23.5,23.5
2,2020-04-13T00:01:00,3.1,北北東,5.6,東北東,7.7,94.7,1.5,5,0,23.5
3,2020-04-13T00:02:00,3.1,北北東,5.6,東北東,7.7,94.7,1,5,0,23.5
4,2020-04-13T00:03:00,3.2,北北東,5.6,東北東,7.7,94.7,1,5,0,23.5
5,2020-04-13T00:04:00,3.2,北北東,5.8,北北東,7.7,94.8,1.5,5.5,0.5,24
6,2020-04-13T00:05:00,3.3,北北東,6.1,北東,7.7,95,1.5,5,0.5,24
7,2020-04-13T00:06:00,3.3,北北東,9.2,北,7.7,95.1,1,5,0.5,24
8,2020-04-13T00:07:00,3.2,北北東,9.2,北,7.8,95.1,1.5,5.5,1,24.5
9,2020-04-13T00:08:00,3.2,北北東,9.2,北,7.8,95.1,1.5,5.5,1,24.5
10,2020-04-13T00:09:00,3.2,北北東,9.2,北,7.8,94.9,1,5.5,1,24.5
11,2020-04-13T00:10:00,3.4,北北東,12,北東,7.8,94.8,1,5.5,1,24.5
12,2020-04-13T00:11:00,3.6,北北東,12,北東,7.9,94.8,1,5.5,1,24.5
13,2020-04-13T00:12:00,3.9,北北東,12,北東,7.9,94.5,1,5,1,24.5
14,2020-04-13T00:13:00,4.1,北北東,12,北東,7.8,94.4,1.5,5.5,1.5,25
15,2020-04-13T00:14:00,4.2,北北東,12,北東,7.9,94.4,1,5.5,1.5,25
16,2020-04-13T00:15:00,4.4,北北東,12,北東,7.9,94.5,1,5.5,1.5,25
17,2020-04-13T00:16:00,4.4,北北東,12,北東,7.9,94.4,1,5.5,1.5,25
18,2020-04-13T00:17:00,4.7,北北東,12,北東,7.9,94.3,0.5,5.5,1.5,25
19,2020-04-13T00:18:00,5,北北東,12,北東,7.9,94.2,0.5,5.5,1.5,25
20,2020-04-13T00:19:00,5.3,北北東,12,北東,7.9,94.1,1,6,2,25.5
21,2020-04-13T00:20:00,5.4,北北東,10.4,北北東,7.9,94.1,1,5.5,2,25.5
22,2020-04-13T00:21:00,5.5,北北東,10.4,北北東,7.9,94.2,1,5.5,2,25.5
23,2020-04-13T00:22:00,5.3,北北東,10.4,北北東,7.9,94.4,1,5.5,2,25.5
24,2020-04-13T00:23:00,5.4,北北東,10.4,北北東,7.9,94.4,0.5,5.5,2,25.5
25,2020-04-13T00:24:00,5.5,北北東,10.4,北北東,8,94.5,0.5,5.5,2,25.5
26,2020-04-13T00:25:00,5.4,北北東,10.4,北北東,8,94.5,1,5.5,2.5,26
27,2020-04-13T00:26:00,5.3,北北東,10.4,北北東,8,94.5,1,5.5,2.5,26
28,2020-04-13T00:27:00,5.2,北北東,10.4,北北東,8,94.5,1,5.5,2.5,26
29,2020-04-13T00:28:00,5,北北東,9.6,北北東,8,94.4,1,5.5,2.5,26
30,2020-04-13T00:29:00,4.7,北北東,9.3,北北東,8.1,94.5,0.5,5.5,2.5,26
31,2020-04-13T00:30:00,4.6,北北東,9.3,北北東,8.1,94.5,0.5,5.5,2.5,26
32,2020-04-13T00:31:00,4.6,北北東,9,北北東,8.1,94.3,1,6,3,26.5
33,2020-04-13T00:32:00,4.4,北北東,9,北北東,8.2,94.2,1,5.5,3,26.5
34,2020-04-13T00:33:00,4.1,北北東,9,北北東,8.2,94.2,1,5.5,3,26.5
35,2020-04-13T00:34:00,4,北北東,10.4,北北東,8.3,94.2,1,5.5,3,26.5
36,2020-04-13T00:35:00,4,北北東,10.4,北北東,8.3,94.1,0.5,5.5,3,26.5
37,2020-04-13T00:36:00,4,北北東,10.4,北北東,8.3,93.8,0.5,5.5,3,26.5
38,2020-04-13T00:37:00,4.1,北北東,10.4,北北東,8.3,93.5,0.5,5.5,3,26.5
39,2020-04-13T00:38:00,4,北北東,10.4,北北東,8.2,93.3,1,6,3.5,27
40,2020-04-13T00:39:00,4.1,北北東,10.4,北北東,8.2,93.3,1,6,3.5,27
41,2020-04-13T00:40:00,4.1,北北東,10.4,北北東,8.2,93.4,1,5.5,3.5,27
42,2020-04-13T00:41:00,3.8,北,10.4,北北東,8.3,93.5,0.5,5.5,3.5,27
43,2020-04-13T00:42:00,4.1,北,10.4,北北東,8.2,93.5,1,6,4,27.5
44,2020-04-13T00:43:00,4.3,北,10.4,北北東,8.2,93.5,1,6,4,27.5
45,2020-04-13T00:44:00,4.2,北,9.2,北東,8.3,93.7,1,6,4,27.5
46,2020-04-13T00:45:00,4.4,北,9.5,北北東,8.3,93.7,1,6,4,27.5
47,2020-04-13T00:46:00,4.4,北,9.6,北北東,8.3,93.6,1.5,6,4.5,28
48,2020-04-13T00:47:00,4.6,北,10.5,北東,8.4,93.6,1.5,6,4.5,28
49,2020-04-13T00:48:00,4.8,北北東,11.5,北,8.4,93.5,1,6,4.5,28
50,2020-04-13T00:49:00,4.7,北,11.5,北,8.4,93.4,1,6,4.5,28
51,2020-04-13T00:50:00,4.7,北,11.5,北,8.4,93.1,1,6,4.5,28
52,2020-04-13T00:51:00,4.8,北北東,11.5,北,8.4,93,1.5,6.5,5,28.5
53,2020-04-13T00:52:00,4.7,北北東,11.5,北,8.4,92.8,1,6,5,28.5
54,2020-04-13T00:53:00,4.7,北北東,11.5,北,8.4,92.9,1,6,5,28.5
55,2020-04-13T00:54:00,4.3,北北東,11.5,北,8.4,92.7,1,6,5,28.5
56,2020-04-13T00:55:00,4.2,北北東,11.5,北,8.4,92.8,1,6,5,28.5
57,2020-04-13T00:56:00,3.9,北,11.5,北,8.5,93.1,0.5,5.5,5,28.5
58,2020-04-13T00:57:00,3.7,北,11.5,北,8.5,92.9,1,6,5.5,29
59,2020-04-13T00:58:00,3.5,北,9.8,北北東,8.5,92.8,1,6,5.5,29
60,2020-04-13T00:59:00,3.4,北,9.8,北北東,8.5,92.8,1,5.5,5.5,29
61,2020-04-13T01:00:00,3.3,北,9.3,北北東,8.6,92.6,1.5,6,6,29.5
62,2020-04-13T01:01:00,3.4,北,9.3,北北東,8.5,92.4,1,6,6,29.5
63,2020-04-13T01:02:00,3.3,北,9.3,北北東,8.6,92.3,1,6,6,29.5
64,2020-04-13T01:03:00,3.2,北,9.3,北北東,8.6,92.1,1,6,6,29.5
65,2020-04-13T01:04:00,3.3,北,9.3,北北東,8.6,92.1,1.5,6,6.5,30
66,2020-04-13T01:05:00,3.5,北,9.3,北北東,8.6,92.3,1.5,6,6.5,30
67,2020-04-13T01:06:00,3.6,北,9.3,北北東,8.7,92.2,1.5,6,6.5,30
68,2020-04-13T01:07:00,3.8,北,9.3,北北東,8.6,91.8,1,5.5,6.5,30
69,2020-04-13T01:08:00,3.8,北,10.9,北北東,8.7,91.7,1.5,6,7,30.5
70,2020-04-13T01:09:00,4,北,10.9,北北東,8.7,91.6,1.5,6,7,30.5
71,2020-04-13T01:10:00,4,北,10.9,北北東,8.7,91.4,1,6,7,30.5
72,2020-04-13T01:11:00,3.9,北,10.9,北北東,8.8,91.4,1,6,7,30.5
73,2020-04-13T01:12:00,4.1,北,10.9,北北東,8.7,91.1,1.5,6.5,7.5,31
74,2020-04-13T01:13:00,4.3,北北東,10.9,北北東,8.7,90.8,1.5,6,7.5,31
75,2020-04-13T01:14:00,4.7,北北東,10.9,北北東,8.7,90.9,1,6,7.5,31
76,2020-04-13T01:15:00,4.3,北,10.9,北北東,8.7,91.1,1,6,7.5,31
77,2020-04-13T01:16:00,4.3,北北東,10.9,北北東,8.6,91.2,1,6,7.5,31
78,2020-04-13T01:17:00,4.2,北,10.9,北北東,8.7,91.5,1.5,6.5,8,31.5
79,2020-04-13T01:18:00,3.9,北,10.1,北東,8.6,91.4,1,6.5,8,31.5
80,2020-04-13T01:19:00,3.7,北,10.1,北東,8.6,91.5,1,6,8,31.5
81,2020-04-13T01:20:00,3.6,北,10.1,北東,8.6,91.9,1.5,6.5,8.5,32
82,2020-04-13T01:21:00,3.4,北,10.1,北東,8.6,92.1,1.5,6.5,8.5,32
83,2020-04-13T01:22:00,3.1,北,10.1,北東,8.5,92.3,1,6.5,8.5,32
84,2020-04-13T01:23:00,2.9,北,10.1,北東,8.6,92.5,1,6.5,8.5,32
85,2020-04-13T01:24:00,2.7,北,8.9,北北東,8.6,92.7,1.5,7,9,32.5
86,2020-04-13T01:25:00,3,北,8.9,北北東,8.6,92.6,1.5,6.5,9,32.5
87,2020-04-13T01:26:00,2.9,北,8.9,北北東,8.7,92.5,1.5,6.5,9,32.5
88,2020-04-13T01:27:00,2.9,北,8.9,北北東,8.6,92.3,1,6.5,9,32.5
89,2020-04-13T01:28:00,3,北,8.9,北北東,8.6,92.3,1,6.5,9,32.5
90,2020-04-13T01:29:00,3.1,北,8.9,北北東,8.6,92.3,1.5,7,9.5,33
91,2020-04-13T01:30:00,3.2,北,10.5,北北東,8.7,92.4,1,7,9.5,33
92,2020-04-13T01:31:00,3.4,北北東,10.5,北北東,8.7,92.5,1,6.5,9.5,33
93,2020-04-13T01:32:00,3.6,北北東,10.5,北北東,8.7,92.4,1.5,7,10,33.5
94,2020-04-13T01:33:00,3.6,北北東,10.5,北北東,8.7,92.5,1.5,7,10,33.5
95,2020-04-13T01:34:00,3.6,北北東,10.5,北北東,8.6,92.2,1,7,10,33.5
96,2020-04-13T01:35:00,3.4,北北東,10.5,北北東,8.6,92.4,1.5,7.5,10.5,34
97,2020-04-13T01:36:00,3.7,北北東,10.5,北北東,8.6,92.6,1.5,7.5,10.5,34
98,2020-04-13T01:37:00,3.7,北北東,10.5,北北東,8.6,92.7,1.5,7.5,10.5,34
99,2020-04-13T01:38:00,3.7,北北東,10.5,北北東,8.6,92.7,1.5,7,10.5,34
100,2020-04-13T01:39:00,3.8,北北東,10.5,北北東,8.6,92.8,1.5,7.5,11,34.5
101,2020-04-13T01:40:00,3.7,北北東,9.9,北東,8.6,92.9,1.5,7.5,11,34.5
102,2020-04-13T01:41:00,3.8,北北東,9.9,北東,8.7,93.2,1.5,7.5,11,34.5
103,2020-04-13T01:42:00,3.7,北北東,9.9,北東,8.7,92.9,1.5,7.5,11.5,35
104,2020-04-13T01:43:00,3.8,北北東,9.9,北東,8.7,92.7,1.5,7.5,11.5,35
105,2020-04-13T01:44:00,3.8,北北東,9.9,北東,8.7,92.7,1.5,7.5,11.5,35
106,2020-04-13T01:45:00,4,北北東,9.9,北東,8.7,92.7,1,7.5,11.5,35
107,2020-04-13T01:46:00,4.1,北北東,11.1,北北東,8.7,92.8,1.5,7.5,12,35.5
108,2020-04-13T01:47:00,4.2,北北東,11.1,北北東,8.7,92.6,1.5,7.5,12,35.5
109,2020-04-13T01:48:00,4.2,北北東,11.1,北北東,8.8,92.4,1.5,7.5,12,35.5
110,2020-04-13T01:49:00,4.2,北北東,11.1,北北東,8.8,92.1,1,7.5,12,35.5
111,2020-04-13T01:50:00,4,北北東,11.1,北北東,8.8,92,1,7.5,12,35.5
112,2020-04-13T01:51:00,3.9,北北東,11.1,北北東,8.8,91.9,1.5,7.5,12.5,36
113,2020-04-13T01:52:00,4,北北東,11.1,北北東,8.9,92,1,7.5,12.5,36
114,2020-04-13T01:53:00,3.9,北北東,11.1,北北東,8.8,91.6,1,7.5,12.5,36
115,2020-04-13T01:54:00,3.9,北北東,11.1,北北東,8.8,91.2,1,7.5,12.5,36
116,2020-04-13T01:55:00,3.8,北北東,11.1,北北東,8.8,91.3,1,7.5,12.5,36
117,2020-04-13T01:56:00,3.6,北,10.4,北東,8.8,91.3,1,8,13,36.5
118,2020-04-13T01:57:00,3.6,北北東,10.4,北東,8.8,91.1,1,7.5,13,36.5
119,2020-04-13T01:58:00,3.6,北北東,10.4,北東,8.8,91.1,1,7.5,13,36.5
120,2020-04-13T01:59:00,3.6,北北東,10.4,北東,8.7,91.1,1.5,8,13.5,37
121,2020-04-13T02:00:00,3.8,北北東,10.4,北東,8.7,91.2,1.5,7.5,13.5,37
122,2020-04-13T02:01:00,4,北北東,10.4,北東,8.7,91.4,1,7.5,13.5,37
123,2020-04-13T02:02:00,4.2,北北東,10.4,北東,8.7,91.7,1,7.5,13.5,37
124,2020-04-13T02:03:00,4.3,北北東,10.4,北東,8.8,91.8,1,7.5,13.5,37
125,2020-04-13T02:04:00,4.3,北北東,10.4,北東,8.7,91.5,1.5,7.5,14,37.5
126,2020-04-13T02:05:00,4.5,北北東,11.4,北東,8.8,91.5,1.5,7.5,14,37.5
127,2020-04-13T02:06:00,4.8,北北東,11.4,北東,8.8,91.5,1,7.5,14,37.5
128,2020-04-13T02:07:00,5.1,北北東,13.9,北東,8.8,91.4,1,7.5,14,37.5
129,2020-04-13T02:08:00,5.1,北北東,13.9,北東,8.8,91.2,1,7,14,37.5
130,2020-04-13T02:09:00,5.4,北北東,13.9,北東,8.8,91.2,0.5,7,14,37.5
131,2020-04-13T02:10:00,5.8,北北東,13.9,北東,8.9,91.2,0.5,7,14,37.5
132,2020-04-13T02:11:00,5.8,北北東,13.9,北東,8.8,90.9,0.5,7,14,37.5
133,2020-04-13T02:12:00,5.8,北北東,13.9,北東,8.8,90.9,0.5,6.5,14,37.5
134,2020-04-13T02:13:00,5.7,北北東,13.9,北東,8.8,91,0.5,6.5,14,37.5
135,2020-04-13T02:14:00,5.7,北北東,13.9,北東,8.8,91.1,0,6.5,14,37.5
136,2020-04-13T02:15:00,5.7,北北東,13.9,北東,8.7,91.3,0.5,7,14.5,38
137,2020-04-13T02:16:00,5.6,北北東,13.9,北東,8.7,91.4,0.5,7,14.5,38
138,2020-04-13T02:17:00,5.2,北北東,11,北北東,8.7,91.4,0.5,6.5,14.5,38
139,2020-04-13T02:18:00,5.3,北北東,11,北北東,8.7,91.5,0.5,6.5,14.5,38
140,2020-04-13T02:19:00,5.3,北北東,11,北北東,8.7,91.7,0.5,6.5,14.5,38
141,2020-04-13T02:20:00,5.2,北北東,11,北北東,8.7,91.9,1,6.5,15,38.5
142,2020-04-13T02:21:00,5.3,北北東,11.4,北北東,8.7,92,1,6.5,15,38.5
143,2020-04-13T02:22:00,5.2,北北東,12.7,北北東,8.6,91.9,1,6.5,15,38.5
144,2020-04-13T02:23:00,5,北北東,12.7,北北東,8.6,92,1,6.5,15,38.5
145,2020-04-13T02:24:00,5,北北東,12.7,北北東,8.6,92.1,1,6,15,38.5
146,2020-04-13T02:25:00,4.8,北北東,12.7,北北東,8.7,92.3,0.5,6,15,38.5
147,2020-04-13T02:26:00,4.7,北北東,12.7,北北東,8.7,92.3,0.5,6,15,38.5
148,2020-04-13T02:27:00,5.1,北北東,12.7,北北東,8.7,92.3,0.5,6,15,38.5
149,2020-04-13T02:28:00,5.2,北北東,12.7,北北東,8.7,92.2,0.5,6,15,38.5
150,2020-04-13T02:29:00,5.2,北北東,12.7,北北東,8.7,91.9,0.5,5.5,15,38.5
151,2020-04-13T02:30:00,5.1,北北東,12.7,北北東,8.7,91.8,0.5,6,15.5,39
152,2020-04-13T02:31:00,5,北北東,12.7,北北東,8.7,91.8,0.5,6,15.5,39
153,2020-04-13T02:32:00,5,北北東,12.2,北北東,8.7,91.7,0.5,5.5,15.5,39
154,2020-04-13T02:33:00,5.1,北北東,12.2,北北東,8.7,91.8,0.5,5.5,15.5,39
155,2020-04-13T02:34:00,5.3,北北東,14.8,北北東,8.7,91.8,0.5,5.5,15.5,39
156,2020-04-13T02:35:00,5.5,北北東,14.8,北北東,8.8,91.6,0.5,5,15.5,39
157,2020-04-13T02:36:00,5.5,北北東,14.8,北北東,8.8,91.3,1,5.5,16,39.5
158,2020-04-13T02:37:00,5.5,北北東,14.8,北北東,8.8,91.1,1,5.5,16,39.5
159,2020-04-13T02:38:00,5.1,北,14.8,北北東,8.7,90.9,1,5.5,16,39.5
160,2020-04-13T02:39:00,5.1,北,14.8,北北東,8.7,90.6,1,5,16,39.5
161,2020-04-13T02:40:00,5,北,14.8,北北東,8.7,91,0.5,5,16,39.5
162,2020-04-13T02:41:00,4.9,北,14.8,北北東,8.7,91.3,0.5,5,16,39.5
163,2020-04-13T02:42:00,4.8,北北東,14.8,北北東,8.7,91.2,0.5,4.5,16,39.5
164,2020-04-13T02:43:00,5,北北東,14.8,北北東,8.7,91.1,1,5,16.5,40
165,2020-04-13T02:44:00,5,北北東,13.3,北北東,8.7,91.2,1,5,16.5,40
166,2020-04-13T02:45:00,5,北北東,12.7,北北東,8.7,91.1,1,5,16.5,40
167,2020-04-13T02:46:00,5.1,北北東,12.7,北北東,8.8,91,0.5,4.5,16.5,40
168,2020-04-13T02:47:00,5,北北東,10.9,北北東,8.7,90.7,0.5,4.5,16.5,40
169,2020-04-13T02:48:00,5.3,北北東,14.2,北北東,8.8,90.6,0.5,4.5,16.5,40
170,2020-04-13T02:49:00,5.4,北北東,14.2,北北東,8.7,90.4,0.5,4.5,16.5,40
171,2020-04-13T02:50:00,5.5,北北東,14.2,北北東,8.7,90.5,0.5,4.5,16.5,40
172,2020-04-13T02:51:00,5.8,北北東,14.4,北北西,8.8,90.7,0.5,4,16.5,40
173,2020-04-13T02:52:00,5.9,北北東,14.4,北北西,8.8,90.5,1,4.5,17,40.5
174,2020-04-13T02:53:00,6.1,北,14.4,北北西,8.8,90.3,0.5,4.5,17,40.5
175,2020-04-13T02:54:00,5.9,北,14.4,北北西,8.8,90,0.5,4.5,17,40.5
176,2020-04-13T02:55:00,5.7,北北東,14.4,北北西,8.8,89.9,0.5,4.5,17,40.5
177,2020-04-13T02:56:00,5.6,北北東,14.4,北北西,8.8,89.8,0.5,4,17,40.5
178,2020-04-13T02:57:00,5.7,北,14.4,北北西,8.8,89.9,0.5,4,17,40.5
179,2020-04-13T02:58:00,5.6,北,14.4,北北西,8.8,89.8,1,4.5,17.5,41
180,2020-04-13T02:59:00,5.5,北,14.4,北北西,8.7,90,1,4,17.5,41
181,2020-04-13T03:00:00,5.4,北,14.4,北北西,8.7,90.3,1,4,17.5,41
182,2020-04-13T03:01:00,5.1,北,13.2,北東,8.7,90.5,1,4,17.5,41
183,2020-04-13T03:02:00,5.1,北北東,13.2,北東,8.7,90.6,0.5,4,17.5,41
184,2020-04-13T03:03:00,4.7,北北東,13.2,北東,8.7,90.7,0.5,4,17.5,41
185,2020-04-13T03:04:00,4.8,北北東,13.2,北東,8.7,90.8,0.5,3.5,17.5,41
186,2020-04-13T03:05:00,5,北北東,13.2,北東,8.7,91,0.5,3.5,17.5,41
187,2020-04-13T03:06:00,5,北北東,13.2,北東,8.7,91,0.5,3.5,17.5,41
188,2020-04-13T03:07:00,4.8,北北東,12.3,北,8.7,91,1,4,18,41.5
189,2020-04-13T03:08:00,4.5,北,12.3,北,8.6,91,0.5,4,18,41.5
190,2020-04-13T03:09:00,4.5,北北東,12.3,北,8.6,90.8,0.5,4,18,41.5
191,2020-04-13T03:10:00,4.6,北北東,12.3,北,8.7,91.3,0.5,4,18,41.5
192,2020-04-13T03:11:00,4.7,北北東,12.3,北,8.7,91.2,0.5,4,18,41.5
193,2020-04-13T03:12:00,5.1,北北東,16.4,北東,8.7,91.2,0.5,4,18,41.5
194,2020-04-13T03:13:00,5.1,北北東,16.4,北東,8.7,90.8,1,4.5,18.5,42
195,2020-04-13T03:14:00,4.8,北北東,16.4,北東,8.7,90.5,1,4.5,18.5,42
196,2020-04-13T03:15:00,4.6,北北東,16.4,北東,8.7,90.5,1,4,18.5,42
197,2020-04-13T03:16:00,4.6,北北東,16.4,北東,8.6,90.5,1,4,18.5,42
198,2020-04-13T03:17:00,4.7,北北東,16.4,北東,8.7,90.6,0.5,4,18.5,42
199,2020-04-13T03:18:00,5.1,北北東,16.4,北東,8.7,90.6,0.5,4,18.5,42
200,2020-04-13T03:19:00,5.4,北北東,16.4,北東,8.7,90.6,0.5,4,18.5,42
201,2020-04-13T03:20:00,5.2,北北東,16.4,北東,8.7,90.6,0.5,3.5,18.5,42
202,2020-04-13T03:21:00,4.9,北北東,16.4,北東,8.7,90.3,0.5,3.5,18.5,42
203,2020-04-13T03:22:00,4.4,北北東,13.4,北北東,8.7,90.2,0.5,3.5,18.5,42
204,2020-04-13T03:23:00,4.4,北北東,13.4,北北東,8.7,90.3,0,3.5,18.5,42
205,2020-04-13T03:24:00,4.7,北北東,13.4,北北東,8.6,90.3,0.5,4,19,42.5
206,2020-04-13T03:25:00,4.8,北北東,13.4,北北東,8.7,90.4,0.5,4,19,42.5
207,2020-04-13T03:26:00,4.9,北北東,13.4,北北東,8.7,90.5,0.5,4,19,42.5
208,2020-04-13T03:27:00,5,北北東,13.4,北北東,8.7,90.5,0.5,4,19,42.5
209,2020-04-13T03:28:00,4.8,北北東,13.4,北北東,8.6,90.5,0.5,4,19,42.5
210,2020-04-13T03:29:00,4.5,北北東,12.7,北北東,8.6,90.6,0.5,4,19,42.5
211,2020-04-13T03:30:00,4.5,北北東,12.7,北北東,8.7,90.7,0.5,3.5,19,42.5
212,2020-04-13T03:31:00,4.8,北北東,12.7,北北東,8.7,90.7,0.5,3.5,19,42.5
213,2020-04-13T03:32:00,5,北北東,12.7,北北東,8.6,90.6,0.5,3.5,19,42.5
214,2020-04-13T03:33:00,4.9,北北東,12.7,北北東,8.6,90.7,0.5,3.5,19,42.5
215,2020-04-13T03:34:00,4.9,北北東,12.7,北北東,8.6,90.8,0,3.5,19,42.5
216,2020-04-13T03:35:00,4.7,北北東,12.7,北北東,8.6,91,0,3.5,19,42.5
217,2020-04-13T03:36:00,4.5,北北東,11.1,北北東,8.6,91,0.5,3.5,19.5,43
218,2020-04-13T03:37:00,4.6,北北東,10.2,北東,8.6,90.9,0.5,3.5,19.5,43
219,2020-04-13T03:38:00,4.7,北北東,12,北東,8.7,90.9,0.5,3.5,19.5,43
220,2020-04-13T03:39:00,4.8,北北東,12,北東,8.7,91,0.5,3.5,19.5,43
221,2020-04-13T03:40:00,5,北北東,12,北東,8.6,90.6,0.5,3.5,19.5,43
222,2020-04-13T03:41:00,5.1,北北東,12,北東,8.6,90.7,1,4,20,43.5
223,2020-04-13T03:42:00,5.1,北北東,12,北東,8.6,90.7,1,4,20,43.5
224,2020-04-13T03:43:00,5.3,北北東,12,北東,8.6,90.7,1,3.5,20,43.5
225,2020-04-13T03:44:00,5.4,北北東,12,北東,8.6,90.6,1,3.5,20,43.5
226,2020-04-13T03:45:00,5.4,北北東,12,北東,8.6,90.6,1,3.5,20,43.5
227,2020-04-13T03:46:00,5.6,北北東,12.1,北北東,8.7,90.7,1,4,20.5,44
228,2020-04-13T03:47:00,5.7,北北東,14.9,北東,8.6,90.6,1,4,20.5,44
229,2020-04-13T03:48:00,5.4,北北東,14.9,北東,8.6,90.6,1,4,20.5,44
230,2020-04-13T03:49:00,5.3,北北東,14.9,北東,8.6,90.4,1,4,20.5,44
231,2020-04-13T03:50:00,5.2,北北東,14.9,北東,8.6,90.5,1.5,4.5,21,44.5
232,2020-04-13T03:51:00,5.1,北北東,14.9,北東,8.6,90.6,1,4.5,21,44.5
233,2020-04-13T03:52:00,5.1,北北東,14.9,北東,8.6,90.7,1,4,21,44.5
234,2020-04-13T03:53:00,5.3,北北東,14.9,北東,8.6,90.7,1,4,21,44.5
235,2020-04-13T03:54:00,5.2,北北東,14.9,北東,8.6,90.8,1,4,21,44.5
236,2020-04-13T03:55:00,5.4,北北東,14.9,北東,8.7,90.8,1,4,21,44.5
237,2020-04-13T03:56:00,5.4,北北東,14.9,北東,8.7,90.7,0.5,4,21,44.5
238,2020-04-13T03:57:00,5.1,北北東,11.4,北北東,8.6,90.2,1,4.5,21.5,45
239,2020-04-13T03:58:00,5.5,北北東,12.1,北,8.7,90.3,1,4,21.5,45
240,2020-04-13T03:59:00,5.4,北北東,12.1,北,8.7,90.2,1,4,21.5,45
241,2020-04-13T04:00:00,5.4,北北東,12.1,北,8.6,90.1,0.5,4,21.5,45
242,2020-04-13T04:01:00,5.2,北北東,12.1,北,8.6,90.4,0.5,4,21.5,45
243,2020-04-13T04:02:00,5.1,北北東,12.1,北,8.6,90.6,0.5,4,21.5,45
244,2020-04-13T04:03:00,4.9,北北東,12.1,北,8.6,90.7,0.5,4,21.5,45
245,2020-04-13T04:04:00,4.8,北北東,12.1,北,8.6,90.6,0.5,4,21.5,45
246,2020-04-13T04:05:00,4.6,北北東,12.1,北,8.7,90.8,1,4.5,22,45.5
247,2020-04-13T04:06:00,4.4,北北東,12.1,北,8.7,90.3,1,4.5,22,45.5
248,2020-04-13T04:07:00,4.4,北北東,12.1,北,8.7,90.3,0.5,4,22,45.5
249,2020-04-13T04:08:00,4.3,北北東,9.9,北北東,8.6,90.3,0.5,4,22,45.5
250,2020-04-13T04:09:00,4.5,北北東,9.9,北北東,8.6,90.5,0.5,4,22,45.5
251,2020-04-13T04:10:00,4.2,北北東,9.9,北北東,8.7,90.6,0.5,4,22,45.5
252,2020-04-13T04:11:00,4.1,北北東,9.9,北北東,8.6,90.5,1,4.5,22.5,46
253,2020-04-13T04:12:00,3.7,北北東,9.9,北北東,8.6,90.6,1,4.5,22.5,46
254,2020-04-13T04:13:00,3.4,北北東,9.9,北北東,8.5,90.7,1,4,22.5,46
255,2020-04-13T04:14:00,3.2,北,9.9,北北東,8.6,91.1,1,4,22.5,46
256,2020-04-13T04:15:00,3,北,9.9,北北東,8.5,91.3,0.5,4,22.5,46
257,2020-04-13T04:16:00,2.8,北,9.9,北北東,8.6,91.5,0.5,4,22.5,46
258,2020-04-13T04:17:00,2.5,北北西,8.7,北北東,8.5,91.7,0.5,4,22.5,46
259,2020-04-13T04:18:00,2.2,北北西,8.4,北北東,8.5,91.8,1,4.5,23,46.5
260,2020-04-13T04:19:00,2,北北西,6.6,北北東,8.5,91.7,1,4.5,23,46.5
261,2020-04-13T04:20:00,2.1,北北西,6.6,北北東,8.5,91.8,1,4.5,23,46.5
262,2020-04-13T04:21:00,2.5,北北西,8.8,東北東,8.5,91.9,0.5,4.5,23,46.5
263,2020-04-13T04:22:00,2.7,北北西,8.8,東北東,8.6,92,0.5,4.5,23,46.5
264,2020-04-13T04:23:00,2.8,北北西,8.8,東北東,8.5,91.9,0.5,4.5,23,46.5
265,2020-04-13T04:24:00,3.2,北,8.8,東北東,8.5,91.9,0.5,4,23,46.5
266,2020-04-13T04:25:00,3.4,北,8.8,東北東,8.5,91.8,1,4.5,23.5,47
267,2020-04-13T04:26:00,3.7,北,9.9,北東,8.5,91.9,1,4.5,23.5,47
268,2020-04-13T04:27:00,4,北,9.9,北東,8.5,92,1,4.5,23.5,47
269,2020-04-13T04:28:00,4.2,北北東,9.9,北東,8.5,91.9,0.5,4.5,23.5,47
270,2020-04-13T04:29:00,4.3,北北東,9.9,北東,8.5,91.9,1,5,24,47.5
271,2020-04-13T04:30:00,4.5,北北東,9.9,北東,8.6,91.9,1,5,24,47.5
272,2020-04-13T04:31:00,4.3,北北東,9.9,北東,8.6,91.8,1,5,24,47.5
273,2020-04-13T04:32:00,4.5,北北東,10.4,北北東,8.6,91.7,1,5,24,47.5
274,2020-04-13T04:33:00,4.8,北北東,10.6,北東,8.6,91.5,1,5,24,47.5
275,2020-04-13T04:34:00,4.7,北北東,10.6,北東,8.6,91.2,1,5,24,47.5
276,2020-04-13T04:35:00,4.7,北北東,10.6,北東,8.6,91.1,0.5,5,24,47.5
277,2020-04-13T04:36:00,4.6,北北東,10.6,北東,8.6,91,1,5,24.5,48
278,2020-04-13T04:37:00,4.8,北北東,10.6,北東,8.6,90.9,1,5,24.5,48
279,2020-04-13T04:38:00,4.7,北北東,10.6,北東,8.6,91,1,5,24.5,48
280,2020-04-13T04:39:00,4.6,北北東,10.6,北東,8.6,90.9,0.5,5,24.5,48
281,2020-04-13T04:40:00,4.5,北北東,10.6,北東,8.6,90.7,0.5,5,24.5,48
282,2020-04-13T04:41:00,4.7,北北東,10.6,北東,8.6,90.8,0.5,4.5,24.5,48
283,2020-04-13T04:42:00,4.3,北北東,10.6,北東,8.6,90.7,1,5,25,48.5
284,2020-04-13T04:43:00,4.2,北北東,9.2,北東,8.5,90.8,1,5,25,48.5
285,2020-04-13T04:44:00,4.2,北北東,9.2,北東,8.6,91.1,1,5,25,48.5
286,2020-04-13T04:45:00,4.3,北北東,9.4,北北東,8.6,91.1,1,5,25,48.5
287,2020-04-13T04:46:00,4.2,北北東,9.4,北北東,8.6,91,0.5,4.5,25,48.5
288,2020-04-13T04:47:00,4,北北東,9.4,北北東,8.6,91,0.5,4.5,25,48.5
289,2020-04-13T04:48:00,3.9,北,9.4,北北東,8.6,91,0.5,4.5,25,48.5
290,2020-04-13T04:49:00,3.8,北,9.4,北北東,8.6,91,0.5,4.5,25,48.5
291,2020-04-13T04:50:00,3.8,北,9.4,北北東,8.6,90.9,1,4.5,25.5,49
292,2020-04-13T04:51:00,3.5,北,9.4,北北東,8.5,90.9,1,4.5,25.5,49
293,2020-04-13T04:52:00,3.6,北北東,9.4,北北東,8.6,90.9,0.5,4.5,25.5,49
294,2020-04-13T04:53:00,3.6,北北東,9.4,北北東,8.6,90.9,0.5,4.5,25.5,49
295,2020-04-13T04:54:00,3.6,北北東,9.4,北北東,8.5,90.9,0.5,4.5,25.5,49
296,2020-04-13T04:55:00,3.2,北北東,7.9,北北東,8.5,91,0.5,4.5,25.5,49
297,2020-04-13T04:56:00,3,北北東,7.3,北北東,8.5,91,0.5,4.5,25.5,49
298,2020-04-13T04:57:00,2.7,北北東,7.3,北北東,8.5,91.3,1,4.5,26,49.5
299,2020-04-13T04:58:00,2.6,北北東,7.3,北北東,8.5,91.7,1,4.5,26,49.5
300,2020-04-13T04:59:00,2.5,北北東,7.3,北北東,8.5,91.6,1,4.5,26,49.5
301,2020-04-13T05:00:00,2.2,北北東,7,北北東,8.5,91.6,0.5,4.5,26,49.5
302,2020-04-13T05:01:00,2,北北東,7,北北東,8.5,91.7,0.5,4.5,26,49.5
303,2020-04-13T05:02:00,1.8,北北東,7,北北東,8.5,91.7,1,5,26.5,50
304,2020-04-13T05:03:00,1.5,北北東,4.9,東北東,8.5,91.8,1,5,26.5,50
305,2020-04-13T05:04:00,1.4,北,4.5,北,8.5,91.8,1,5,26.5,50
306,2020-04-13T05:05:00,1.5,北,6.5,北,8.5,91.7,1,4.5,26.5,50
307,2020-04-13T05:06:00,1.5,北,6.5,北,8.5,91.8,1,4.5,26.5,50
308,2020-04-13T05:07:00,1.4,北,6.5,北,8.4,91.7,1,5,27,50.5
309,2020-04-13T05:08:00,1.6,北,6.5,北,8.5,92,1,5,27,50.5
310,2020-04-13T05:09:00,1.6,北,6.5,北,8.5,92.1,1,5,27,50.5
311,2020-04-13T05:10:00,1.8,北,6.5,北,8.5,91.9,1,5,27,50.5
312,2020-04-13T05:11:00,2,北,6.5,北,8.5,91.7,1,4.5,27,50.5
313,2020-04-13T05:12:00,2,北,6.5,北,8.5,91.5,1,5,27.5,51
314,2020-04-13T05:13:00,2.1,北,6.5,北,8.5,91.5,1,5,27.5,51
315,2020-04-13T05:14:00,2.2,北,6.5,北,8.5,91.7,1,5,27.5,51
316,2020-04-13T05:15:00,2.3,北,5.9,北北東,8.5,91.9,1,5,27.5,51
317,2020-04-13T05:16:00,2.5,北,5.9,北北東,8.5,91.9,1,5,27.5,51
318,2020-04-13T05:17:00,2.8,北北東,6.2,北北東,8.5,92,1,5.5,28,51.5
319,2020-04-13T05:18:00,2.7,北北東,6.2,北北東,8.6,91.9,1,5,28,51.5
320,2020-04-13T05:19:00,2.8,北北東,6.2,北北東,8.5,91.6,1,5,28,51.5
321,2020-04-13T05:20:00,2.8,北北東,6.2,北北東,8.5,91.5,1,5,28,51.5
322,2020-04-13T05:21:00,2.8,北北東,6.2,北北東,8.5,91.6,1,5,28,51.5
323,2020-04-13T05:22:00,3.1,北北東,6.4,北北東,8.5,91.8,1,5.5,28.5,52
324,2020-04-13T05:23:00,3.1,北北東,6.7,北北東,8.5,91.9,1,5.5,28.5,52
325,2020-04-13T05:24:00,3.5,北北東,8.7,北北東,8.5,91.9,1,5.5,28.5,52
326,2020-04-13T05:25:00,3.6,北北東,8.7,北北東,8.5,91.9,1.5,5.5,29,52.5
327,2020-04-13T05:26:00,3.7,北北東,11.2,北東,8.5,91.8,1.5,5.5,29,52.5
328,2020-04-13T05:27:00,3.8,北北東,11.2,北東,8.5,91.8,1.5,6,29.5,53
329,2020-04-13T05:28:00,4,北北東,11.2,北東,8.4,91.7,1.5,6,29.5,53
330,2020-04-13T05:29:00,4.1,北北東,11.2,北東,8.4,92,2,6,30,53.5
331,2020-04-13T05:30:00,4.2,北北東,11.2,北東,8.4,92.3,2,6,30,53.5
332,2020-04-13T05:31:00,4.3,北北東,11.2,北東,8.3,92.5,2.5,6.5,30.5,54
333,2020-04-13T05:32:00,4.3,北北東,11.2,北東,8.3,92.6,2,6.5,30.5,54
334,2020-04-13T05:33:00,4.2,北北東,11.2,北東,8.3,92.8,2.5,7,31,54.5
335,2020-04-13T05:34:00,4,北北東,11.2,北東,8.3,93,2.5,7,31,54.5
336,2020-04-13T05:35:00,3.9,北北東,11.2,北東,8.3,93.3,2,7,31,54.5
337,2020-04-13T05:36:00,4,北北東,9.8,北北東,8.3,93.5,2.5,7,31.5,55
338,2020-04-13T05:37:00,3.9,北北東,9.8,北北東,8.3,93.7,2,7,31.5,55
339,2020-04-13T05:38:00,3.9,北北東,9.8,北北東,8.3,93.7,2.5,7.5,32,55.5
340,2020-04-13T05:39:00,4.2,北北東,11.5,北北東,8.3,93.7,2,7.5,32,55.5
341,2020-04-13T05:40:00,4.3,北北東,11.5,北北東,8.3,93.6,2.5,8,32.5,56
342,2020-04-13T05:41:00,4.3,北北東,11.5,北北東,8.2,93.6,2,8,32.5,56
343,2020-04-13T05:42:00,4.5,北北東,11.5,北北東,8.2,93.7,2.5,8,33,56.5
344,2020-04-13T05:43:00,4.7,北北東,11.5,北北東,8.3,93.8,2,8,33,56.5
345,2020-04-13T05:44:00,5.1,北北東,12.7,北東,8.3,93.9,2,8,33,56.5
346,2020-04-13T05:45:00,5.3,北北東,12.7,北東,8.3,93.9,2,8,33,56.5
347,2020-04-13T05:46:00,5.4,北北東,12.7,北東,8.3,93.9,1.5,8,33,56.5
348,2020-04-13T05:47:00,5.8,北北東,12.7,北東,8.4,93.8,1.5,8,33,56.5
349,2020-04-13T05:48:00,6,北北東,12.7,北東,8.4,93.8,1.5,8.5,33.5,57
350,2020-04-13T05:49:00,6,北北東,12.7,北東,8.4,93.6,1.5,8.5,33.5,57
351,2020-04-13T05:50:00,6.3,北北東,12.7,北東,8.4,93.5,1,8,33.5,57
352,2020-04-13T05:51:00,6.2,北北東,12.7,北東,8.4,93.3,1,8,33.5,57
353,2020-04-13T05:52:00,6.1,北北東,12.7,北東,8.4,93.2,0.5,8,33.5,57
354,2020-04-13T05:53:00,6,北北東,12.7,北東,8.4,93.2,0.5,8,33.5,57
355,2020-04-13T05:54:00,5.8,北北東,11.4,北東,8.4,93.2,0.5,8,33.5,57
356,2020-04-13T05:55:00,5.8,北北東,11.4,北東,8.5,93.3,0.5,8,33.5,57
357,2020-04-13T05:56:00,5.7,北北東,11.4,北東,8.5,93.3,0.5,8,33.5,57
358,2020-04-13T05:57:00,5.5,北北東,11.4,北東,8.5,93.3,0.5,7.5,33.5,57
359,2020-04-13T05:58:00,5.2,北北東,11.1,北北東,8.6,93.1,0,7.5,33.5,57
360,2020-04-13T05:59:00,5,北北東,11.1,北北東,8.6,93,0,7.5,33.5,57
361,2020-04-13T06:00:00,4.7,北北東,11.1,北北東,8.6,92.9,0,7.5,33.5,57
362,2020-04-13T06:01:00,5,北北東,11.1,北北東,8.6,92.8,0,7.5,33.5,57
363,2020-04-13T06:02:00,5,北北東,11.1,北北東,8.6,92.8,0,7,33.5,57
364,2020-04-13T06:03:00,5,北北東,11.1,北北東,8.6,92.7,0,7,33.5,57
365,2020-04-13T06:04:00,4.7,北北東,11.1,北北東,8.6,92.6,0,7,33.5,57
366,2020-04-13T06:05:00,4.5,北北東,11.1,北北東,8.7,92.8,0,7,33.5,57
367,2020-04-13T06:06:00,4,北北東,10.9,北,8.6,92.7,0,7,33.5,57
368,2020-04-13T06:07:00,3.9,北北東,10.9,北,8.6,92.7,0,6.5,33.5,57
369,2020-04-13T06:08:00,3.7,北北東,10.9,北,8.7,92.9,0,6.5,33.5,57
370,2020-04-13T06:09:00,3.5,北北東,10.9,北,8.6,92.8,0,6.5,33.5,57
371,2020-04-13T06:10:00,3.9,北北東,10.9,北,8.7,93,0,6.5,33.5,57
372,2020-04-13T06:11:00,3.5,北北東,10.9,北北東,8.7,93,0,6.5,33.5,57
373,2020-04-13T06:12:00,3.6,北北東,10.9,北北東,8.7,92.9,0,6,33.5,57
374,2020-04-13T06:13:00,3.7,北北東,10.9,北北東,8.8,92.8,0,6,33.5,57
375,2020-04-13T06:14:00,3.8,北北東,10.9,北北東,8.8,92.6,0,6,33.5,57
376,2020-04-13T06:15:00,3.9,北北東,10.9,北北東,8.8,92.5,0,6,33.5,57
377,2020-04-13T06:16:00,4.2,北北東,10.9,北北東,8.8,92.5,0,6,33.5,57
378,2020-04-13T06:17:00,4.3,北北東,10.9,北北東,8.8,92.4,0,5.5,33.5,57
379,2020-04-13T06:18:00,4.4,北北東,10.9,北北東,8.8,92.2,0,5.5,33.5,57
380,2020-04-13T06:19:00,4.4,北北東,10.9,北北東,8.8,92.2,0,5.5,33.5,57
381,2020-04-13T06:20:00,4,北北東,9.5,北東,8.8,92.2,0,5.5,33.5,57
382,2020-04-13T06:21:00,4.1,北北東,9.5,北東,8.9,92.2,0,5.5,33.5,57
383,2020-04-13T06:22:00,3.9,北北東,9.5,北東,8.9,92.2,0,5,33.5,57
384,2020-04-13T06:23:00,3.9,北北東,8.6,北東,8.9,92.1,0,5,33.5,57
385,2020-04-13T06:24:00,3.7,北北東,8.6,北東,8.9,92.1,0,5,33.5,57
386,2020-04-13T06:25:00,3.6,北北東,8.6,北東,8.9,92,0,4.5,33.5,57
387,2020-04-13T06:26:00,3.4,北北東,8.6,北東,8.9,92,0,4.5,33.5,57
388,2020-04-13T06:27:00,3.4,北北東,8.6,北東,8.9,91.9,0,4,33.5,57